Theta_e
289 289 288 288 288 288 288 288 288 289 289 288 288 288 287 287 287 286 285 284 285 284 285 284 283 283 282 281 281 280 279 279 276 278 279 279 278 278 280 280 281 280 280
290 289 288 288 288 287 288 288 288 288 288 288 288 287 287 287 287 286 285 286 284 283 284 283 283 285 281 281 280 280 279 279 278 276 278 277 277 278 279 278 279 280 279
290 289 289 288 288 287 288 288 288 288 288 288 288 286 286 286 286 286 285 285 284 284 283 283 283 282 281 280 279 279 279 279 278 276 275 277 277 278 277 277 277 277 278
290 289 288 288 288 288 288 288 288 288 287 287 287 287 286 286 286 286 285 285 284 284 283 283 282 281 280 279 279 278 278 277 276 275 275 275 275 276 276 274 274 276 275
290 289 289 289 289 289 289 288 288 288 288 288 287 287 287 286 286 285 285 285 284 283 283 283 282 282 283 281 279 278 277 275 275 274 273 274 274 273 273 274 273 273 273
290 289 290 290 289 288 288 288 287 287 287 287 286 286 285 285 288 289 287 284 284 283 282 281 281 282 281 282 282 282 280 276 274 274 273 272 273 273 273 272 271 269 266
288 290 290 289 288 287 287 287 287 286 286 286 286 286 285 285 289 289 288 284 283 282 281 280 280 279 280 278 279 280 279 279 279 276 273 272 271 272 272 270 269 268 267
285 287 288 287 287 287 286 286 286 286 286 286 286 286 285 285 289 289 288 283 282 281 281 279 279 278 278 277 276 275 275 275 275 275 274 273 273 273 273 271 269 267 266
285 286 286 285 286 285 285 285 286 285 285 285 286 285 285 284 288 289 287 281 281 279 279 278 278 276 277 278 276 274 273 274 276 276 276 276 276 275 273 269 265 263 261
284 285 285 285 285 285 285 285 285 285 285 285 284 284 284 282 288 288 284 280 278 277 277 277 278 276 277 277 275 271 268 270 271 271 270 269 270 269 271 268 266 262 261
285 284 284 284 284 285 284 284 283 282 282 281 282 281 280 281 284 287 283 279 277 275 275 275 276 278 277 276 276 273 271 272 268 262 263 264 264 264 265 266 266 265 262
282 283 283 283 283 283 283 283 282 282 281 280 278 275 276 278 282 285 282 280 279 275 274 274 274 276 275 275 274 273 273 271 261 258 258 261 261 262 263 263 263 263 264
280 281 282 281 283 282 282 282 280 280 279 276 275 273 271 274 278 282 281 280 278 274 273 274 274 274 273 270 270 270 268 261 258 256 259 260 261 262 262 262 262 262 262
279 279 279 279 279 278 280 280 279 278 278 275 274 271 270 272 274 275 275 275 276 273 273 270 271 270 269 268 265 266 263 261 259 258 259 260 261 261 260 261 260 261 260
277 278 277 277 275 274 275 277 278 278 279 275 274 272 269 269 271 273 272 271 271 271 267 266 264 263 261 261 260 259 258 258 257 257 257 259 260 259 259 260 260 260 258
279 277 278 276 274 275 275 273 280 280 281 280 278 274 273 274 275 275 275 274 275 273 264 261 261 261 260 259 257 256 256 257 256 255 253 257 257 258 258 259 259 258 258
279 279 275 274 274 274 273 273 273 277 280 280 278 276 276 276 277 277 276 275 273 268 260 261 260 259 258 257 256 256 256 256 254 252 256 257 258 258 257 257 257 258 258
280 277 275 274 274 273 273 273 273 273 271 272 277 276 277 277 276 275 273 269 262 261 258 257 256 256 255 255 254 253 252 252 251 253 256 257 257 256 256 256 257 257 257
279 276 276 275 273 273 273 272 270 269 268 268 271 273 274 275 274 273 269 261 259 257 256 255 254 253 253 252 251 249 250 250 253 255 256 256 257 257 256 257 257 257 258
279 279 275 273 272 271 270 268 267 266 266 265 263 262 265 264 261 259 258 257 256 257 256 254 252 251 250 248 247 247 247 249 253 255 255 256 257 257 256 256 257 257 257
278 274 273 271 270 268 266 265 264 263 262 261 260 262 265 260 258 257 256 255 255 254 253 252 250 248 247 246 246 246 247 253 254 255 255 256 256 255 257 257 257 257 257
273 271 269 268 267 266 264 264 263 262 260 259 260 265 266 258 257 256 255 254 252 252 251 249 247 246 246 246 246 246 249 252 253 254 254 255 255 256 256 256 256 256 257
270 269 267 266 265 264 263 262 261 260 259 260 259 258 256 256 255 254 254 251 250 249 247 246 245 245 245 247 248 250 252 252 254 255 254 254 255 255 255 255 255 255 256
268 266 264 263 263 262 261 260 260 259 258 258 257 256 255 254 254 253 250 249 247 245 244 244 244 247 247 249 249 251 252 253 254 254 254 254 254 255 255 255 255 255 256
264 263 263 262 261 260 259 259 258 258 257 257 256 255 254 253 251 249 248 245 243 242 243 244 245 247 248 249 250 250 252 254 254 254 254 254 253 253 253 255 255 256 258
263 263 262 261 260 260 259 258 257 257 256 256 255 254 252 250 248 246 243 242 241 241 243 245 246 247 248 250 250 252 255 258 258 258 258 259 259 260 262 262 263 262 263
Wind_Speed
19 19 19 19 19 17 17 18 18 16 16 16 16 15 16 15 12 11 10 8 11 9 8 8 9 7 5 4 4 4 4 4 9 8 4 4 5 7 9 7 9 10 11
19 17 18 18 17 19 20 20 18 18 17 17 16 15 16 15 14 14 14 13 12 12 11 9 9 7 7 6 5 6 6 5 6 13 7 5 6 8 9 11 11 11 10
16 16 17 19 19 21 21 21 19 19 19 17 17 17 17 17 16 16 16 14 13 13 11 11 11 8 8 5 5 5 4 4 4 6 9 5 6 8 10 12 11 11 10
13 15 17 18 21 21 21 20 20 20 20 19 19 19 18 18 17 16 15 14 13 12 11 10 9 9 7 6 5 5 3 3 4 6 8 8 8 9 9 11 11 8 11
12 13 17 18 18 20 19 20 19 21 21 20 20 19 19 18 15 17 16 15 14 12 9 9 8 7 9 7 3 3 3 3 5 7 8 8 9 9 10 8 11 11 12
10 13 15 15 17 18 18 18 18 19 19 20 20 21 20 16 26 27 20 15 14 13 11 8 7 8 9 12 11 13 9 4 7 7 8 10 10 9 8 9 11 13 15
8 12 14 12 13 15 16 16 18 19 18 20 21 20 21 20 27 29 28 14 14 12 12 9 7 5 7 5 7 10 9 11 14 10 11 10 10 10 12 13 12 12 14
9 12 10 10 12 13 12 16 17 15 17 18 19 20 18 17 27 28 26 14 12 12 11 9 8 7 6 5 4 4 5 6 8 7 6 7 10 12 12 12 15 13 13
13 13 10 9 12 11 12 14 14 13 15 16 16 17 18 15 28 28 23 13 12 11 9 9 8 7 9 8 4 4 5 6 6 12 17 22 22 23 21 11 10 10 13
13 12 11 10 11 12 13 12 11 11 14 10 13 14 16 14 26 28 22 11 12 9 8 9 12 8 10 9 4 3 3 2 5 7 5 9 13 13 19 10 9 10 10
10 9 11 11 12 12 11 9 9 10 9 10 10 8 10 14 18 28 24 11 10 9 8 7 6 13 10 9 9 3 3 6 4 2 4 6 6 7 7 6 7 8 11
7 11 12 11 10 8 10 9 9 9 10 11 11 7 5 7 16 25 22 15 17 10 9 7 6 10 9 8 4 8 12 9 2 1 2 6 7 7 8 7 9 10 11
8 11 13 10 11 10 10 11 8 11 11 9 9 8 8 7 9 21 20 18 18 9 7 10 10 8 5 2 5 8 3 2 0 2 5 7 7 8 9 10 10 12 13
11 11 11 11 10 8 7 7 9 10 10 10 10 10 9 8 8 8 8 9 15 10 12 7 8 6 2 2 1 2 0 2 3 3 6 6 7 7 9 8 10 10 11
10 10 10 8 8 5 6 7 9 10 13 12 11 12 13 12 9 15 13 8 7 10 9 5 3 2 2 1 1 2 2 1 2 3 4 7 7 8 9 8 9 10 11
11 9 9 7 5 5 5 1 10 11 17 19 19 15 9 17 25 23 21 19 18 19 4 3 3 3 3 2 2 2 2 3 3 4 3 5 7 9 10 9 9 9 11
14 13 6 7 6 7 6 6 6 8 13 17 22 25 25 24 26 23 21 19 16 10 4 4 4 3 2 2 2 2 3 3 3 3 5 7 8 9 10 10 10 10 12
16 15 8 9 9 8 8 7 7 10 11 9 19 22 27 26 24 22 21 15 6 4 3 3 3 3 2 2 2 2 2 3 3 3 6 8 8 8 10 10 11 12 12
13 10 9 8 7 9 9 9 9 9 10 11 12 16 17 23 21 19 14 5 6 4 3 3 2 2 2 2 2 3 3 3 4 5 7 8 8 8 11 11 12 17 17
12 15 10 8 9 9 9 11 9 10 10 9 9 6 5 10 6 6 4 5 4 3 3 3 2 2 3 3 3 3 3 2 5 6 8 8 9 9 11 12 12 13 13
6 6 10 8 8 9 9 10 9 9 9 9 8 6 14 8 7 5 5 3 3 3 3 2 2 2 3 3 3 3 3 6 7 8 8 9 9 10 10 11 13 13 14
6 8 8 9 9 9 9 10 9 10 10 10 8 8 15 6 5 5 4 3 3 3 2 3 2 3 4 4 3 3 4 8 8 8 9 10 10 11 11 12 12 12 13
9 10 9 9 9 14 11 10 10 11 11 8 6 8 5 5 4 4 4 3 2 1 1 1 2 3 3 4 4 5 7 9 9 8 10 11 10 11 11 12 13 13 13
10 11 11 11 10 10 11 11 11 13 10 8 7 6 5 4 4 4 3 2 2 1 1 2 3 5 5 6 4 6 8 10 9 10 13 11 12 14 12 12 13 17 16
11 12 12 12 11 12 12 11 11 10 8 7 6 5 4 4 4 3 2 2 0 1 4 4 4 7 10 11 11 12 15 19 16 16 11 13 16 18 15 14 16 16 20
11 12 12 11 11 11 11 11 10 8 8 6 5 5 4 3 3 2 1 1 2 3 5 4 6 10 11 10 13 16 18 19 17 19 14 13 14 14 13 17 22 16 21
Wind_Direction
223 221 219 219 217 217 218 220 217 211 208 208 201 198 198 200 197 196 201 196 206 209 213 207 219 207 221 221 225 230 233 228 264 273 265 280 282 285 290 284 287 287 288
227 224 227 227 221 219 220 221 217 216 213 210 203 198 199 198 197 197 201 206 205 206 210 209 221 212 221 215 217 233 237 232 258 280 283 287 279 287 294 297 293 292 287
230 225 225 227 224 225 226 223 218 216 216 211 207 204 200 201 200 200 201 203 203 208 200 203 215 201 220 209 220 237 243 261 264 284 291 295 299 302 300 294 291 297 290
235 231 231 229 229 229 228 224 220 217 217 211 210 206 203 202 201 201 200 200 203 204 198 198 198 198 203 212 224 238 257 292 294 288 291 294 295 297 292 301 297 297 304
243 236 234 234 234 236 235 230 226 219 217 213 210 209 204 203 200 198 197 197 200 202 195 194 191 182 193 182 172 224 246 258 274 282 284 288 295 300 300 314 307 309 298
244 243 242 238 236 236 235 233 230 227 221 216 214 210 204 204 204 197 191 194 196 195 195 189 182 182 194 213 237 246 240 241 258 275 293 292 298 313 314 312 304 306 309
266 257 254 249 243 240 237 232 230 227 222 219 217 211 213 209 201 194 190 187 186 188 183 174 174 165 169 173 228 255 271 280 280 289 296 300 310 311 304 308 307 303 300
268 266 262 248 248 246 236 233 232 226 222 219 219 216 211 209 200 192 182 177 178 175 173 162 164 159 168 172 195 237 257 273 277 280 285 283 291 299 306 314 311 307 294
283 284 267 246 253 251 241 237 232 227 224 219 220 212 208 205 194 186 174 168 169 160 152 151 157 154 180 210 214 228 259 278 293 296 299 301 304 311 311 310 302 305 299
276 271 267 257 251 252 247 243 233 223 225 212 211 206 202 189 191 178 170 165 160 152 147 146 155 158 193 214 222 203 213 253 277 281 303 307 307 302 303 298 290 289 292
270 269 270 258 252 250 251 241 220 211 198 189 193 184 179 186 184 178 171 163 157 151 156 158 166 188 199 217 242 172 247 271 340 25 310 297 292 283 276 271 273 279 286
261 267 268 264 254 244 231 235 213 204 194 180 166 148 154 171 179 178 172 159 154 149 151 145 148 178 202 229 262 292 295 311 48 351 292 289 286 284 283 281 276 271 264
252 263 270 266 256 243 229 219 194 182 176 177 170 162 151 153 162 172 168 158 142 125 126 146 159 164 196 355 310 290 346 81 311 285 280 280 275 275 285 290 282 275 272
244 250 260 256 246 230 227 213 198 190 184 172 172 165 158 158 157 150 148 140 142 132 143 113 135 134 152 211 80 300 169 198 204 245 270 268 279 289 293 291 291 296 295
248 255 256 230 224 212 206 200 208 209 192 179 176 166 160 164 164 148 143 141 137 132 116 111 110 106 117 149 218 216 237 247 256 248 264 278 290 296 285 287 287 293 290
264 265 258 237 201 202 203 163 226 206 195 196 173 158 150 149 153 154 153 152 151 138 97 125 126 144 173 186 214 249 243 247 249 254 255 282 289 284 290 292 289 288 287
269 268 223 214 201 192 180 179 163 168 167 160 154 148 141 151 151 148 143 137 139 126 122 129 143 156 168 190 215 217 248 238 241 252 275 284 284 285 293 291 291 288 287
265 253 213 204 197 184 166 164 157 144 136 136 139 132 138 139 139 140 131 123 111 90 87 116 137 147 172 208 233 239 263 277 264 258 282 280 281 283 286 286 288 287 288
256 240 215 201 175 167 151 142 138 135 129 127 119 114 123 130 131 124 115 117 124 118 125 131 151 170 203 218 237 255 246 249 264 277 276 274 276 281 283 283 283 285 284
250 229 187 166 157 149 144 134 135 132 128 120 113 103 105 99 95 97 97 102 106 122 130 140 181 198 215 222 241 245 264 269 274 270 272 274 279 276 277 282 282 285 286
224 166 154 134 139 136 134 130 131 123 117 106 96 106 114 115 124 126 127 130 139 130 137 153 196 223 236 240 246 254 244 269 267 272 276 277 278 278 276 277 280 282 284
150 137 132 131 126 126 122 122 120 112 103 106 123 144 116 99 113 122 125 126 131 132 144 156 213 225 227 225 235 245 257 271 274 270 271 273 276 277 278 279 280 281 284
130 127 118 117 114 117 112 112 110 107 109 113 102 106 111 115 120 115 115 115 116 148 220 183 234 268 263 253 235 232 255 263 264 267 271 274 275 274 276 277 280 282 281
119 119 115 116 118 112 110 111 104 103 114 110 109 114 122 122 119 118 118 108 84 356 320 275 255 255 265 265 246 250 252 258 262 262 262 266 270 276 273 273 275 276 276
116 120 118 121 119 112 112 105 103 108 111 113 117 117 116 115 106 94 96 102 84 296 276 269 261 265 265 265 266 265 265 269 265 263 265 260 259 263 264 269 272 274 270
114 115 113 113 112 112 111 108 107 109 112 114 111 108 109 101 96 95 56 25 274 266 278 268 263 266 271 274 271 271 272 273 273 269 256 252 259 265 269 275 280 282 282